DW2891 Weather Reports


Display with metric or nautical units.
time (UTC)temp
F
wind
direction
speed
MPH
gust
MPH
rain 1hr
in
rain 24hr
in
rain mn
in
humidity
%
barometer
mb
20260904044105 55 250 0.0 0.0 0.00 0.10 0.09 91 1010.4
20260904043605 55 250 0.0 0.0 0.00 0.10 0.09 91 1010.5
20260904043105 55 250 0.0 0.0 0.00 0.10 0.09 91 1010.5
20260904042605 55 250 0.0 0.0 0.00 0.10 0.09 91 1010.5
20260904042105 55 250 0.0 0.0 0.00 0.10 0.09 91 1010.6
20260904041604 55 250 0.0 0.0 0.00 0.10 0.09 91 1010.6
20260904041105 55 250 0.0 0.0 0.00 0.10 0.09 91 1010.5
20260904035605 55 250 0.0 0.0 0.00 0.10 0.09 91 1010.5
20260904035105 55 250 0.0 0.0 0.00 0.10 0.09 91 1010.5
20260904034105 55 250 0.0 0.0 0.00 0.10 0.09 91 1010.5
20260904033605 56 250 0.0 0.0 0.00 0.10 0.09 91 1010.5
20260904032605 56 250 0.0 0.0 0.00 0.10 0.09 90 1010.5
20260904032105 56 250 0.0 0.0 0.00 0.10 0.09 90 1010.4
20260904031605 56 250 0.0 0.0 0.00 0.10 0.09 90 1010.5
20260904031105 56 250 0.0 0.0 0.00 0.10 0.09 89 1010.4
20260904030105 57 250 0.0 0.0 0.00 0.10 0.09 89 1010.4
20260904025605 57 250 0.0 0.0 0.00 0.10 0.09 89 1010.4
20260904025105 57 250 0.0 0.0 0.00 0.10 0.09 89 1010.4
20260904024105 57 250 0.0 0.0 0.00 0.10 0.09 89 1010.5
20260904023605 57 250 0.0 0.0 0.00 0.10 0.09 89 1010.5
20260904023104 57 255 0.0 0.0 0.00 0.10 0.09 90 1010.4
20260904022604 58 181 0.0 0.0 0.00 0.11 0.09 90 1010.4
20260904022105 58 132 0.0 0.0 0.00 0.11 0.09 91 1010.3
20260904021604 58 132 0.0 0.0 0.00 0.11 0.09 91 1010.3
20260904021105 58 132 0.0 0.0 0.00 0.12 0.09 91 1010.2
20260904020605 58 132 0.0 0.0 0.00 0.12 0.09 90 1010.3
20260904015104 58 132 0.0 0.0 0.00 0.14 0.09 85 1010.2
20260904014605 59 132 0.0 0.0 0.00 0.14 0.09 87 1010.4
20260904014104 59 132 0.0 0.0 0.00 0.15 0.09 84 1010.3
20260904013605 59 132 0.0 0.0 0.00 0.16 0.09 85 1010.3
20260904013105 60 132 0.0 0.0 0.00 0.17 0.09 87 1010.2
20260904012604 60 132 0.0 0.0 0.00 0.17 0.09 86 1010.2
20260904012105 60 132 0.0 0.0 0.00 0.17 0.09 84 1009.9
20260904011605 60 132 0.0 0.0 0.00 0.17 0.09 82 1009.9
20260904011105 60 132 0.0 0.0 0.00 0.17 0.09 86 1009.8
20260904010105 60 132 0.0 0.0 0.00 0.17 0.09 87 1009.8
20260904005605 61 132 0.0 0.0 0.00 0.17 0.09 85 1009.7
20260904005105 60 132 0.0 0.0 0.00 0.17 0.09 80 1009.6
20260904004605 60 132 0.0 0.0 0.00 0.17 0.09 87 1009.7
20260904003605 61 132 0.0 0.0 0.00 0.17 0.09 85 1009.6
20260904003105 61 132 0.0 0.0 0.00 0.17 0.09 85 1009.7
20260904002605 61 132 0.0 0.0 0.00 0.17 0.09 83 1009.7
20260904002105 61 132 0.0 0.0 0.00 0.18 0.09 82 1009.7
20260904001605 61 132 0.0 0.0 0.00 0.19 0.09 79 1009.8
20260904000105 61 132 0.0 0.0 0.00 0.22 0.09 83 1009.7
20260903235605 61 132 0.0 0.0 0.00 0.22 0.09 83 1009.7
20260903235105 61 132 0.0 0.0 0.00 0.23 0.09 84 1009.7
20260903234604 61 132 0.0 0.0 0.00 0.24 0.09 83 1009.8
20260903234105 62 132 0.0 0.0 0.00 0.24 0.09 75 1009.7
20260903233605 62 132 0.0 0.0 0.00 0.25 0.09 76 1009.7
20260903233105 61 132 0.0 0.0 0.00 0.25 0.09 77 1009.7
20260903231605 60 132 0.0 0.0 0.00 0.26 0.09 84 1009.6
20260903231105 59 132 0.0 0.0 0.00 0.26 0.09 86 1009.7
20260903230605 59 132 0.0 0.0 0.00 0.26 0.09 85 1009.7
20260903230105 60 132 0.0 0.0 0.00 0.26 0.09 78 1009.7
20260903225604 60 132 0.0 0.0 0.00 0.26 0.09 78 1009.8
20260903225105 61 132 0.0 0.0 0.00 0.26 0.09 79 1010.0
20260903224105 60 132 0.0 0.0 0.00 0.26 0.09 86 1010.0
20260903223605 59 132 0.0 0.0 0.00 0.26 0.09 86 1009.9
20260903223104 60 132 0.0 0.0 0.00 0.26 0.09 82 1010.1
20260903222605 60 132 0.0 0.0 0.00 0.26 0.09 82 1010.1
20260903221605 61 132 0.0 1.0 0.00 0.26 0.09 84 1010.1
20260903221105 60 132 0.0 0.0 0.00 0.26 0.09 83 1010.1
20260903220604 60 132 0.0 0.0 0.00 0.26 0.09 82 1010.1
20260903220104 59 132 0.0 0.0 0.00 0.26 0.09 85 1010.0
20260903215105 60 132 0.0 0.0 0.00 0.26 0.09 87 1010.0
20260903214605 60 132 0.0 0.0 0.00 0.26 0.09 84 1010.0
20260903214105 60 132 0.0 0.0 0.00 0.26 0.09 82 1010.0
20260903213605 59 132 0.0 0.0 0.00 0.26 0.09 87 1009.9
20260903213105 59 132 0.0 0.0 0.00 0.26 0.09 89 1009.9
20260903212104 59 132 0.0 0.0 0.00 0.26 0.09 87 1009.9
20260903211105 59 132 0.0 0.0 0.00 0.26 0.09 88 1009.9
20260903210605 59 132 0.0 0.0 0.00 0.26 0.09 89 1009.9
20260903204605 60 132 0.0 0.0 0.00 0.26 0.09 88 1009.8
20260903204105 59 132 0.0 0.0 0.00 0.26 0.09 90 1009.7
20260903203604 58 132 0.0 0.0 0.00 0.26 0.09 92 1009.7
20260903203104 58 132 0.0 0.0 0.00 0.26 0.09 93 1009.7
20260903202605 58 132 0.0 0.0 0.00 0.26 0.09 92 1009.7
20260903202105 58 132 0.0 0.0 0.00 0.26 0.09 93 1009.7
20260903201604 58 132 0.0 0.0 0.00 0.26 0.09 92 1009.8
20260903201104 58 132 0.0 0.0 0.00 0.26 0.09 92 1009.9
20260903200604 58 132 0.0 0.0 0.00 0.26 0.09 92 1009.9
20260903200105 58 132 0.0 0.0 0.00 0.26 0.09 92 1009.8
20260903195604 57 132 0.0 0.0 0.00 0.26 0.09 93 1009.7
20260903195105 57 132 0.0 0.0 0.00 0.26 0.09 94 1009.8
20260903194605 57 132 0.0 0.0 0.00 0.26 0.09 93 1009.8
20260903194105 57 132 0.0 0.0 0.00 0.26 0.09 93 1009.7
20260903191104 57 132 0.0 0.0 0.00 0.26 0.09 94 1009.5
20260903190604 57 132 0.0 0.0 0.00 0.26 0.09 94 1009.6
20260903190105 57 132 0.0 0.0 0.00 0.26 0.09 93 1009.6
20260903185605 57 132 0.0 0.0 0.00 0.26 0.09 95 1009.5
20260903185105 56 132 0.0 0.0 0.00 0.26 0.09 96 1009.5
20260903184605 56 132 0.0 0.0 0.00 0.26 0.09 95 1009.6
20260903184104 56 132 0.0 0.0 0.00 0.26 0.09 95 1009.4
20260903183104 56 132 0.0 0.0 0.00 0.26 0.09 96 1009.4
20260903182105 56 132 0.0 0.0 0.00 0.26 0.09 96 1009.3
20260903181605 56 132 0.0 0.0 0.00 0.26 0.09 96 1009.1
20260903181108 55 132 0.0 0.0 0.00 0.26 0.09 96 1009.0
20260903180105 56 132 0.0 0.0 0.00 0.26 0.09 96 1009.0
20260903175605 56 132 0.0 0.0 0.00 0.26 0.09 95 1008.9
20260903175105 55 132 0.0 0.0 0.00 0.26 0.09 95 1008.9
20260903174604 55 132 0.0 0.0 0.00 0.26 0.09 95 1008.9
20260903173105 55 132 0.0 0.0 0.00 0.26 0.09 95 1008.7
20260903172605 55 132 0.0 0.0 0.00 0.26 0.09 95 1008.6
20260903172104 55 132 0.0 0.0 0.00 0.26 0.09 96 1008.7
20260903171604 55 132 0.0 0.0 0.00 0.26 0.09 96 1008.6
20260903171105 55 132 0.0 0.0 0.00 0.26 0.09 96 1008.5
20260903170604 55 132 0.0 0.0 0.01 0.26 0.09 96 1008.4
20260903170104 55 132 0.0 0.0 0.01 0.26 0.09 96 1008.4
20260903165604 55 132 0.0 0.0 0.01 0.26 0.09 96 1008.3
20260903165105 55 132 0.0 0.0 0.01 0.26 0.09 96 1008.3
20260903164605 55 132 0.0 0.0 0.01 0.26 0.09 96 1008.3
20260903164105 55 132 0.0 0.0 0.01 0.26 0.09 96 1008.3
20260903163605 55 132 0.0 0.0 0.01 0.26 0.09 96 1008.2
20260903163105 55 132 0.0 0.0 0.01 0.26 0.09 96 1008.1
20260903162605 55 132 0.0 0.0 0.01 0.26 0.09 96 1008.1
20260903162105 55 132 0.0 0.0 0.01 0.26 0.09 96 1008.1
20260903161605 55 132 0.0 0.0 0.01 0.26 0.09 96 1008.1
20260903161105 55 132 0.0 0.0 0.01 0.26 0.09 96 1008.0
20260903160604 55 132 0.0 0.0 0.01 0.25 0.09 96 1008.0
20260903160104 55 132 0.0 0.0 0.01 0.25 0.09 96 1007.9
20260903155604 55 132 0.0 0.0 0.02 0.25 0.09 96 1008.0
20260903155106 55 132 0.0 0.0 0.02 0.25 0.09 96 1007.9
20260903154605 55 132 0.0 0.0 0.02 0.25 0.09 96 1007.9
20260903154105 54 132 0.0 0.0 0.02 0.25 0.09 96 1007.8
20260903153604 54 132 0.0 0.0 0.02 0.25 0.09 96 1007.8
20260903153104 54 132 0.0 0.0 0.02 0.25 0.09 96 1007.7
20260903152604 54 132 0.0 0.0 0.02 0.26 0.09 96 1007.7
20260903152104 54 132 0.0 0.0 0.02 0.26 0.09 96 1007.8
20260903151605 54 132 0.0 0.0 0.02 0.26 0.09 96 1007.8
20260903151105 54 132 0.0 0.0 0.02 0.26 0.09 96 1007.6
20260903150605 54 132 0.0 0.0 0.01 0.25 0.08 96 1007.7
20260903150105 55 132 0.0 0.0 0.01 0.25 0.08 96 1007.6
20260903145605 55 132 0.0 0.0 0.01 0.24 0.07 96 1007.4
20260903145104 55 132 0.0 0.0 0.01 0.24 0.07 96 1007.4
20260903144605 55 132 0.0 0.0 0.01 0.24 0.07 96 1007.3
20260903144105 55 132 0.0 0.0 0.01 0.24 0.07 96 1007.3
20260903143605 55 132 0.0 0.0 0.01 0.24 0.07 96 1007.2
20260903143104 55 131 0.0 0.0 0.01 0.24 0.07 96 1007.2
20260903142605 55 132 0.0 0.0 0.01 0.24 0.07 96 1007.1
20260903142105 55 132 0.0 0.0 0.01 0.24 0.07 96 1007.1
20260903141605 54 131 0.0 0.0 0.01 0.24 0.07 96 1006.9
20260903141105 54 132 0.0 0.0 0.01 0.24 0.07 96 1006.9
20260903140604 54 131 0.0 0.0 0.01 0.24 0.07 96 1006.8
20260903135604 54 132 0.0 0.0 0.01 0.24 0.07 96 1006.8
20260903135104 54 132 0.0 0.0 0.00 0.24 0.06 96 1006.8
20260903134604 54 131 0.0 0.0 0.00 0.24 0.06 96 1006.8
20260903134105 54 131 0.0 0.0 0.00 0.24 0.06 96 1006.8
20260903133605 54 132 0.0 0.0 0.00 0.24 0.06 96 1006.7
20260903133104 54 132 0.0 0.0 0.00 0.24 0.06 96 1006.6
20260903132604 54 132 0.0 0.0 0.00 0.24 0.06 96 1006.6
20260903132106 54 132 0.0 0.0 0.00 0.24 0.06 96 1006.6
20260903131105 54 132 0.0 0.0 0.00 0.24 0.06 96 1006.4
20260903130605 54 132 0.0 0.0 0.00 0.24 0.06 96 1006.4
20260903130106 54 132 0.0 0.0 0.00 0.24 0.06 96 1006.4
20260903125605 54 132 0.0 0.0 0.00 0.24 0.06 96 1006.4
20260903125105 54 131 0.0 0.0 0.00 0.24 0.06 96 1006.4
20260903124605 54 132 0.0 0.0 0.00 0.24 0.06 96 1006.4
20260903123605 54 131 0.0 0.0 0.00 0.24 0.06 96 1006.3
20260903123104 54 132 0.0 0.0 0.00 0.24 0.06 96 1006.3
20260903122607 54 132 0.0 0.0 0.00 0.24 0.06 96 1006.3
20260903122105 54 132 0.0 0.0 0.00 0.24 0.06 96 1006.3
20260903121604 54 132 0.0 0.0 0.01 0.24 0.06 96 1006.1
20260903121105 54 132 0.0 0.0 0.01 0.24 0.06 96 1006.1
20260903120605 53 132 0.0 0.0 0.01 0.24 0.06 96 1006.0
20260903120105 53 131 0.0 0.0 0.01 0.24 0.06 96 1006.1
20260903115605 53 132 0.0 0.0 0.01 0.24 0.06 96 1006.0
20260903115105 53 132 0.0 0.0 0.01 0.24 0.06 96 1006.0
20260903114605 53 132 0.0 0.0 0.02 0.24 0.06 96 1005.9
20260903114105 53 132 0.0 0.0 0.02 0.24 0.06 96 1005.9
20260903113605 53 132 0.0 0.0 0.02 0.24 0.06 96 1005.8
20260903113105 53 132 0.0 0.0 0.02 0.24 0.06 96 1006.0
20260903112604 53 131 0.0 0.0 0.02 0.24 0.06 95 1006.0
20260903112105 53 131 0.0 0.0 0.02 0.24 0.06 95 1006.0
20260903111605 53 132 0.0 0.0 0.02 0.23 0.06 95 1005.9
20260903111105 53 132 0.0 0.0 0.02 0.23 0.06 95 1005.8
20260903110606 53 131 0.0 0.0 0.02 0.23 0.06 95 1005.8
20260903110105 53 131 0.0 0.0 0.03 0.23 0.06 95 1005.8
20260903105605 53 132 0.0 0.0 0.03 0.23 0.06 95 1005.8
20260903105105 53 132 0.0 0.0 0.03 0.23 0.06 95 1005.9
20260903104606 53 131 0.0 0.0 0.02 0.22 0.05 95 1005.8
20260903104104 53 131 0.0 0.0 0.02 0.22 0.05 95 1005.7
20260903103604 54 132 0.0 0.0 0.02 0.22 0.05 95 1005.7
20260903103104 54 132 0.0 0.0 0.02 0.22 0.05 95 1005.6
20260903102606 54 132 0.0 0.0 0.02 0.21 0.04 95 1005.6
20260903102104 54 132 0.0 0.0 0.02 0.21 0.04 95 1005.6
20260903101605 54 196 0.0 0.0 0.01 0.20 0.03 95 1005.6
20260903101104 54 196 0.0 0.0 0.01 0.20 0.03 95 1005.6
20260903100105 54 196 0.0 0.0 0.00 0.20 0.02 95 1005.7
20260903095605 54 196 0.0 1.0 0.00 0.20 0.02 95 1005.6
20260903095105 54 196 0.0 0.0 0.00 0.20 0.02 96 1005.6
20260903094604 54 196 0.0 0.0 0.01 0.20 0.02 96 1005.6
20260903093605 54 196 0.0 0.0 0.02 0.20 0.02 96 1005.6
20260903093104 54 196 0.0 0.0 0.02 0.20 0.02 96 1005.6
20260903092604 54 196 0.0 0.0 0.02 0.20 0.02 96 1005.6
20260903091605 54 196 3.0 6.0 0.02 0.20 0.02 96 1005.5
20260903091104 54 196 0.0 0.0 0.02 0.20 0.02 96 1005.5
20260903090604 54 196 0.0 1.0 0.02 0.20 0.02 96 1005.5
20260903085605 53 145 0.0 0.0 0.02 0.20 0.02 96 1005.4
20260903084605 53 135 0.0 0.0 0.02 0.19 0.02 96 1005.5
20260903084104 53 135 0.0 0.0 0.02 0.19 0.02 96 1005.5
20260903083604 53 135 0.0 0.0 0.01 0.18 0.01 96 1005.4
20260903083104 53 187 0.0 0.0 0.01 0.18 0.01 96 1005.3
20260903082604 53 187 0.0 1.0 0.01 0.18 0.01 96 1005.3
20260903082104 53 187 0.0 0.0 0.01 0.18 0.01 96 1005.2
20260903081105 53 187 0.0 0.0 0.00 0.17 0.00 96 1005.0
20260903080605 53 187 0.0 0.0 0.00 0.17 0.00 96 1004.9
20260903075604 52 346 0.0 6.0 0.00 0.17 0.00 96 1004.9
20260903075105 52 346 0.0 0.0 0.00 0.17 0.00 96 1004.8
20260903074604 52 346 0.0 0.0 0.00 0.17 0.00 96 1004.6
20260903074104 52 346 0.0 0.0 0.01 0.17 0.00 96 1004.5
20260903073604 52 346 0.0 0.0 0.01 0.17 0.00 96 1004.4
20260903072604 52 346 0.0 0.0 0.01 0.17 0.00 96 1004.5
20260903072105 52 346 0.0 0.0 0.01 0.17 0.00 96 1004.4
20260903071605 52 346 0.0 0.0 0.01 0.17 0.00 96 1004.2
20260903071106 51 346 0.0 0.0 0.01 0.17 0.00 96 1004.2
20260903070605 51 346 0.0 0.0 0.01 0.17 0.00 96 1004.2
20260903070105 51 346 0.0 0.0 0.01 0.17 0.00 96 1004.1
20260903065105 51 346 0.0 0.0 0.01 0.17 0.17 96 1004.0
20260903064605 51 346 0.0 0.0 0.01 0.17 0.17 95 1004.0
20260903064105 51 346 0.0 0.0 0.00 0.17 0.17 95 1004.0
20260903063605 51 346 0.0 0.0 0.00 0.17 0.17 95 1003.9
20260903062605 52 346 0.0 0.0 0.00 0.17 0.17 95 1003.9
20260903062105 52 346 0.0 0.0 0.00 0.17 0.17 95 1003.7
20260903061606 52 346 0.0 0.0 0.00 0.17 0.17 95 1003.7
20260903061105 52 346 0.0 0.0 0.00 0.17 0.17 95 1003.8
20260903060605 52 346 0.0 0.0 0.00 0.17 0.17 95 1003.6
20260903060104 52 346 0.0 0.0 0.00 0.17 0.17 95 1003.6
20260903055105 52 346 0.0 0.0 0.00 0.17 0.17 95 1003.6
20260903054105 52 346 0.0 0.0 0.00 0.17 0.17 95 1003.3
20260903053104 53 346 0.0 0.0 0.00 0.17 0.17 95 1003.2
20260903052604 53 346 0.0 0.0 0.00 0.17 0.17 95 1003.1
20260903052105 53 346 1.0 5.0 0.00 0.17 0.17 95 1003.0
20260903051606 53 346 0.0 0.0 0.00 0.17 0.17 95 1002.9
20260903051105 54 346 0.0 0.0 0.00 0.17 0.17 95 1002.8
20260903050604 54 346 0.0 0.0 0.00 0.17 0.17 95 1002.6
20260903050104 54 346 0.0 0.0 0.00 0.17 0.17 95 1002.6
20260903045605 55 346 0.0 0.0 0.00 0.17 0.17 95 1002.5
20260903045105 55 346 0.0 0.0 0.00 0.17 0.17 95 1002.4
20260903044605 55 346 0.0 0.0 0.00 0.17 0.17 95 1002.1